SWR805 EDDN-EDDS

Flight info

Callsign SWR805
Flight time 0h 32m
Altitude 22000
Route BOLSI1G BOLSI Y166 DKB Z818 GEBNO T726 LBU
Aircraft RJ1H/M-SDFGIRWY/LB1

Departure

Time 2026-05-04 10:52
Airport Nuremberg Airport (EDDN)

Arrival

Time 2026-05-04 11:24
Airport Stuttgart Airport (EDDS)
Time Latitude Longitude Altitude Speed Heading
2026-05-04 10:16 49.49551 11.07456 1029 ft 0 kts 189°
2026-05-04 10:40 49.49576 11.07460 1029 ft 3 kts 185°
2026-05-04 10:41 49.49596 11.07461 1029 ft 4 kts 170°
2026-05-04 10:41 49.49617 11.07442 1025 ft 4 kts 117°
2026-05-04 10:41 49.49621 11.07425 1029 ft 2 kts 99°
2026-05-04 10:45 49.49620 11.07434 1029 ft 2 kts 99°
2026-05-04 10:45 49.49613 11.07493 1025 ft 9 kts 99°
2026-05-04 10:46 49.49600 11.07620 1027 ft 15 kts 98°
2026-05-04 10:46 49.49583 11.07798 1028 ft 19 kts 98°
2026-05-04 10:46 49.49562 11.08014 1029 ft 22 kts 98°
2026-05-04 10:46 49.49538 11.08256 1029 ft 23 kts 99°
2026-05-04 10:47 49.49599 11.08373 1029 ft 14 kts 30°
2026-05-04 10:47 49.49607 11.08516 1029 ft 15 kts 98°
2026-05-04 10:47 49.49590 11.08694 1030 ft 19 kts 98°
2026-05-04 10:47 49.49570 11.08903 1035 ft 21 kts 98°
2026-05-04 10:49 49.49594 11.09492 1053 ft 0 kts 53°
2026-05-04 10:49 49.49597 11.09497 1053 ft 2 kts 53°
2026-05-04 10:50 49.49616 11.09536 1054 ft 7 kts 51°
2026-05-04 10:51 49.49999 11.06363 1583 ft 150 kts 278°
2026-05-04 10:52 49.50123 11.04754 2283 ft 154 kts 275°
2026-05-04 10:52 49.50232 11.03069 2910 ft 165 kts 275°
2026-05-04 10:52 49.50345 11.01277 3601 ft 170 kts 273°
2026-05-04 10:54 49.50028 10.88361 7067 ft 212 kts 245°
2026-05-04 10:54 49.49408 10.86329 7941 ft 214 kts 244°
2026-05-04 10:56 49.40825 10.75532 11364 ft 284 kts 179°
2026-05-04 10:56 49.38841 10.75694 12022 ft 287 kts 179°
2026-05-04 10:56 49.36837 10.75849 12717 ft 289 kts 180°
2026-05-04 10:57 49.34819 10.75963 13460 ft 291 kts 181°
2026-05-04 10:57 49.32789 10.76026 14137 ft 293 kts 181°
2026-05-04 10:57 49.30739 10.76041 14719 ft 296 kts 182°
2026-05-04 10:57 49.28667 10.76035 15269 ft 300 kts 182°
2026-05-04 10:58 49.26572 10.76008 15817 ft 303 kts 184°
2026-05-04 10:58 49.24480 10.75714 16315 ft 303 kts 199°
2026-05-04 10:58 49.22716 10.74035 16796 ft 302 kts 229°
2026-05-04 10:58 49.21730 10.71213 17298 ft 306 kts 254°
2026-05-04 10:59 49.21302 10.68010 17797 ft 310 kts 257°
2026-05-04 10:59 49.20901 10.64745 18216 ft 314 kts 257°
2026-05-04 10:59 49.20491 10.61500 18649 ft 316 kts 257°
2026-05-04 10:59 49.20046 10.58206 19062 ft 317 kts 256°
2026-05-04 11:00 49.19559 10.54910 19468 ft 318 kts 255°
2026-05-04 11:01 49.15621 10.31724 21618 ft 326 kts 254°
2026-05-04 11:02 49.15046 10.28367 21858 ft 327 kts 254°
2026-05-04 11:02 49.14500 10.24973 22002 ft 328 kts 260°
2026-05-04 11:05 49.12836 9.77271 22026 ft 325 kts 248°
2026-05-04 11:06 49.12037 9.74039 22042 ft 325 kts 247°
2026-05-04 11:06 49.11241 9.70815 22026 ft 324 kts 247°
2026-05-04 11:06 49.10440 9.67594 22026 ft 325 kts 247°
2026-05-04 11:06 49.09647 9.64360 22022 ft 326 kts 248°
2026-05-04 11:08 49.02559 9.43012 21633 ft 344 kts 210°
2026-05-04 11:10 48.87391 9.36089 17022 ft 344 kts 160°
2026-05-04 11:12 48.83852 9.56328 12711 ft 346 kts 75°
2026-05-04 11:12 48.84555 9.59791 12105 ft 342 kts 75°
2026-05-04 11:12 48.85256 9.63218 11504 ft 338 kts 75°
2026-05-04 11:12 48.85934 9.66612 10930 ft 334 kts 76°
2026-05-04 11:13 48.86586 9.69976 10408 ft 329 kts 76°
2026-05-04 11:13 48.87200 9.73241 10232 ft 314 kts 77°
2026-05-04 11:13 48.87780 9.76347 10188 ft 297 kts 77°
2026-05-04 11:13 48.88312 9.79287 10157 ft 282 kts 78°
2026-05-04 11:14 48.88467 9.80215 10146 ft 276 kts 82°
2026-05-04 11:14 48.86908 9.85541 9756 ft 241 kts 150°
2026-05-04 11:16 48.79369 9.79717 7745 ft 221 kts 255°
2026-05-04 11:16 48.79074 9.77427 7456 ft 221 kts 257°
2026-05-04 11:16 48.78806 9.75165 7214 ft 221 kts 257°
2026-05-04 11:17 48.78537 9.72877 6977 ft 219 kts 256°
2026-05-04 11:17 48.78185 9.70625 6548 ft 221 kts 253°
2026-05-04 11:19 48.75125 9.54624 5192 ft 216 kts 252°
2026-05-04 11:19 48.74720 9.52482 4908 ft 207 kts 252°
2026-05-04 11:19 48.74328 9.50426 4615 ft 199 kts 252°
2026-05-04 11:19 48.73950 9.48439 4353 ft 195 kts 252°
2026-05-04 11:20 48.73575 9.46458 4120 ft 195 kts 253°
2026-05-04 11:20 48.73203 9.44491 3870 ft 193 kts 253°
2026-05-04 11:20 48.72749 9.42487 3923 ft 210 kts 248°
2026-05-04 11:20 48.72203 9.40326 3948 ft 227 kts 252°
2026-05-04 11:22 48.70113 9.28151 1793 ft 126 kts 255°
2026-05-04 11:22 48.69875 9.26891 1613 ft 123 kts 256°
2026-05-04 11:23 48.69642 9.25673 1402 ft 119 kts 258°
2026-05-04 11:23 48.69423 9.24486 1255 ft 115 kts 255°
2026-05-04 11:24 48.68980 9.21514 1257 ft 0 kts 284°
2026-05-04 11:25 48.68980 9.21513 1257 ft 1 kts 284°
2026-05-04 11:25 48.68985 9.21484 1255 ft 5 kts 284°
2026-05-04 11:26 48.68992 9.21289 1267 ft 14 kts 252°
2026-05-04 11:27 48.68889 9.19834 1303 ft 10 kts 270°
2026-05-04 11:28 48.68876 9.19744 1306 ft 9 kts 255°
2026-05-04 11:28 48.68854 9.19631 1309 ft 14 kts 253°
2026-05-04 11:28 48.68822 9.19458 1312 ft 19 kts 254°
2026-05-04 11:28 48.68789 9.19290 1314 ft 10 kts 253°
2026-05-04 11:29 48.68793 9.19245 1315 ft 3 kts 312°
2026-05-04 11:29 48.68813 9.19232 1315 ft 3 kts 343°
2026-05-04 11:29 48.68831 9.19224 1315 ft 2 kts 343°
2026-05-04 11:29 48.68844 9.19218 1315 ft 2 kts 344°
2026-05-04 11:31 48.68857 9.19212 1315 ft 0 kts 344°